TimeCEST,TemperatureF,Dew PointF,Humidity,Sea Level PressureIn,VisibilityMPH,Wind Direction,Wind SpeedMPH,Gust SpeedMPH,PrecipitationIn,Events,Conditions,WindDirDegrees,DateUTC
12:45 AM,60.8,53.6,77,30.12,-9999.0,Calm,Calm,-,N/A,,Clear,0,2012-10-19 22:45:00
1:45 AM,57.2,51.8,82,30.12,-9999.0,NNE,2.3,-,N/A,,Clear,30,2012-10-19 23:45:00
2:00 AM,58,51,72,30.13,9,NNE,2.2,,,,Partly Cloudy,30,2012-10-20 00:00:00
2:45 AM,59.0,51.8,77,30.12,-9999.0,North,1.2,-,N/A,,Clear,10,2012-10-20 00:45:00
3:45 AM,57.2,50.0,77,30.12,-9999.0,East,3.5,-,N/A,,Clear,80,2012-10-20 01:45:00
4:45 AM,55.4,51.8,88,30.12,-9999.0,ESE,1.2,-,N/A,,Clear,110,2012-10-20 02:45:00
5:45 AM,53.6,50.0,88,30.12,-9999.0,ESE,2.3,-,N/A,,Clear,110,2012-10-20 03:45:00
6:15 AM,53.6,51.8,94,30.09,-9999.0,SE,1.2,-,N/A,,Clear,130,2012-10-20 04:15:00
6:45 AM,51.8,50.0,94,30.09,6.2,North,2.3,-,N/A,Fog,Shallow Fog,350,2012-10-20 04:45:00
7:00 AM,-9999,-9999,N/A,-9999,-9999.0,Variable,3.5,-,N/A,,Clear,0,2012-10-20 05:00:00
7:15 AM,53.6,51.8,94,30.09,6.2,Calm,Calm,-,N/A,Fog,Shallow Fog,0,2012-10-20 05:15:00
7:45 AM,48.2,46.4,93,30.12,6.2,ENE,4.6,-,N/A,Fog,Shallow Fog,70,2012-10-20 05:45:00
8:00 AM,49,47,89,30.12,9,ENE,4.5,,,Fog,Patches of Fog,70,2012-10-20 06:00:00
8:15 AM,51.8,51.8,100,30.12,6.2,ENE,3.5,-,N/A,Fog,Shallow Fog,70,2012-10-20 06:15:00
8:45 AM,57.2,51.8,82,30.12,-9999.0,East,3.5,-,N/A,,Clear,90,2012-10-20 06:45:00
9:15 AM,60.8,53.6,77,30.12,-9999.0,Calm,Calm,-,N/A,,Clear,0,2012-10-20 07:15:00
9:45 AM,64.4,55.4,73,30.12,-9999.0,Calm,Calm,-,N/A,,Clear,0,2012-10-20 07:45:00
10:00 AM,-9999,-9999,N/A,-9999,-9999.0,East,4.6,-,N/A,,Clear,90,2012-10-20 08:00:00
10:15 AM,64.4,55.4,73,30.12,-9999.0,NW,3.5,-,N/A,,Clear,310,2012-10-20 08:15:00
10:45 AM,66.2,48.2,52,30.12,-9999.0,WNW,4.6,-,N/A,,Clear,300,2012-10-20 08:45:00
11:15 AM,68.0,48.2,49,30.15,-9999.0,WNW,6.9,-,N/A,,Clear,300,2012-10-20 09:15:00
11:45 AM,69.8,50.0,49,30.12,-9999.0,NW,4.6,-,N/A,,Clear,310,2012-10-20 09:45:00
12:15 PM,69.8,46.4,43,30.12,-9999.0,NW,5.8,-,N/A,,Clear,310,2012-10-20 10:15:00
12:45 PM,71.6,51.8,50,30.12,-9999.0,NW,2.3,-,N/A,,Clear,310,2012-10-20 10:45:00
1:00 PM,-9999,-9999,N/A,-9999,-9999.0,Variable,3.5,-,N/A,,Clear,0,2012-10-20 11:00:00
1:15 PM,73.4,50.0,44,30.12,-9999.0,North,1.2,-,N/A,,Clear,360,2012-10-20 11:15:00
1:45 PM,73.4,48.2,41,30.12,-9999.0,East,1.2,-,N/A,,Clear,80,2012-10-20 11:45:00
2:00 PM,73,48,30,30.10,37,East,2.2,,,,Partly Cloudy,80,2012-10-20 12:00:00
2:15 PM,73.4,48.2,41,30.12,-9999.0,SE,2.3,-,N/A,,Clear,130,2012-10-20 12:15:00
2:45 PM,75.2,50.0,41,30.12,-9999.0,Calm,Calm,-,N/A,,Clear,0,2012-10-20 12:45:00
3:15 PM,75.2,50.0,41,30.12,-9999.0,Calm,Calm,-,N/A,,Clear,0,2012-10-20 13:15:00
3:45 PM,73.4,51.8,47,30.12,-9999.0,ESE,2.3,-,N/A,,Clear,110,2012-10-20 13:45:00
4:00 PM,-9999,-9999,N/A,-9999,-9999.0,Variable,3.5,-,N/A,,Clear,0,2012-10-20 14:00:00
4:15 PM,73.4,53.6,50,30.12,-9999.0,East,2.3,-,N/A,,Clear,100,2012-10-20 14:15:00
4:45 PM,71.6,55.4,57,30.12,-9999.0,SE,3.5,-,N/A,,Clear,140,2012-10-20 14:45:00
5:15 PM,68.0,57.2,68,30.12,-9999.0,ESE,5.8,-,N/A,,Clear,120,2012-10-20 15:15:00
5:45 PM,66.2,55.4,68,30.12,-9999.0,SE,3.5,-,N/A,,Clear,140,2012-10-20 15:45:00
6:15 PM,66.2,55.4,68,30.12,-9999.0,SE,2.3,-,N/A,,Clear,140,2012-10-20 16:15:00
6:45 PM,64.4,55.4,73,30.12,-9999.0,ESE,2.3,-,N/A,,Clear,120,2012-10-20 16:45:00
7:15 PM,64.4,55.4,73,30.12,-9999.0,SE,2.3,-,N/A,,Clear,140,2012-10-20 17:15:00
7:45 PM,60.8,53.6,77,30.12,-9999.0,Calm,Calm,-,N/A,,Clear,0,2012-10-20 17:45:00
8:00 PM,61,54,71,30.12,6,Calm,Calm,,,,Partly Cloudy,,2012-10-20 18:00:00
8:15 PM,60.8,55.4,82,30.12,-9999.0,NNE,1.2,-,N/A,,Clear,20,2012-10-20 18:15:00
8:45 PM,60.8,53.6,77,30.12,-9999.0,NNE,2.3,-,N/A,,Clear,30,2012-10-20 18:45:00
9:15 PM,60.8,53.6,77,30.12,-9999.0,North,2.3,-,N/A,,Clear,10,2012-10-20 19:15:00
9:45 PM,59.0,53.6,82,30.12,-9999.0,NNE,2.3,-,N/A,,Clear,30,2012-10-20 19:45:00
10:45 PM,59.0,53.6,82,30.12,-9999.0,NNE,2.3,-,N/A,,Clear,30,2012-10-20 20:45:00
11:45 PM,59.0,53.6,82,30.12,-9999.0,North,2.3,-,N/A,,Clear,10,2012-10-20 21:45:00